BEL52B KJFK-EBBR

Flight info

Callsign BEL52B
Flight time N/A
Altitude 37000
Route DCT MERIT DCT HFD DCT PUT DCT BOS DCT ALLEX N357C JOOPY/M082F390 DCT 49N050W 51N040W 52N030W 52N020W DCT LIMRI/N0472F390 DCT XETBO DCT EVRIN DCT JETZI DCT AMFUL DCT CAWZE DCT SIRIC P2 DVR/N0434F230 L18 VABIK Q70 KOK KOK9A
Aircraft A333/H-SDE3GHIJ2J3J5M1RVWXY/LB2D1

Departure

Time 2026-05-08 21:50
Airport John F. Kennedy International Airport (KJFK)

Arrival

Time N/A
Airport Brussels Airport (EBBR)
Time Latitude Longitude Altitude Speed Heading
2026-05-08 21:25 40.64177 -73.79321 24 ft 0 kts 108°
2026-05-08 21:38 40.64181 -73.79335 24 ft 4 kts 111°
2026-05-08 21:38 40.64192 -73.79367 30 ft 4 kts 125°
2026-05-08 21:38 40.64210 -73.79394 30 ft 4 kts 143°
2026-05-08 21:38 40.64224 -73.79406 30 ft 1 kts 152°
2026-05-08 21:44 40.64219 -73.79407 30 ft 3 kts 177°
2026-05-08 21:44 40.64197 -73.79444 27 ft 7 kts 255°
2026-05-08 21:44 40.64183 -73.79524 27 ft 15 kts 263°
2026-05-08 21:45 40.64153 -73.79597 30 ft 9 kts 200°
2026-05-08 21:45 40.64030 -73.79560 28 ft 27 kts 146°
2026-05-08 21:45 40.63924 -73.79360 26 ft 29 kts 121°
2026-05-08 21:45 40.63806 -73.79096 28 ft 39 kts 118°
2026-05-08 21:46 40.63675 -73.78825 31 ft 36 kts 121°
2026-05-08 21:46 40.63556 -73.78565 30 ft 35 kts 120°
2026-05-08 21:46 40.63456 -73.78339 29 ft 23 kts 119°
2026-05-08 21:46 40.63357 -73.78121 31 ft 21 kts 122°
2026-05-08 21:47 40.63336 -73.77938 29 ft 15 kts 78°
2026-05-08 21:47 40.63321 -73.77831 30 ft 13 kts 121°
2026-05-08 21:47 40.63269 -73.77716 27 ft 17 kts 120°
2026-05-08 21:47 40.63202 -73.77565 32 ft 22 kts 120°
2026-05-08 21:48 40.63116 -73.77373 29 ft 26 kts 122°
2026-05-08 21:48 40.63027 -73.77183 30 ft 27 kts 121°
2026-05-08 21:48 40.62936 -73.77106 27 ft 12 kts 198°
2026-05-08 21:48 40.62848 -73.77161 29 ft 16 kts 208°
2026-05-08 21:49 40.62823 -73.77212 30 ft 3 kts 285°
2026-05-08 21:49 40.62837 -73.77250 31 ft 7 kts 297°
2026-05-08 21:49 40.62902 -73.77400 28 ft 41 kts 300°
2026-05-08 21:49 40.63146 -73.77931 29 ft 93 kts 298°
2026-05-08 21:50 40.63559 -73.78857 27 ft 139 kts 302°
2026-05-08 21:50 40.64127 -73.80105 51 ft 178 kts 304°
2026-05-08 21:50 40.64780 -73.81599 386 ft 198 kts 301°
2026-05-08 21:50 40.65440 -73.83267 929 ft 209 kts 294°
2026-05-08 21:51 40.65718 -73.85128 1562 ft 213 kts 265°
2026-05-08 21:51 40.65065 -73.86883 2173 ft 224 kts 223°
2026-05-08 21:51 40.63645 -73.87649 3036 ft 223 kts 194°
2026-05-08 21:51 40.62104 -73.87772 3959 ft 222 kts 176°
2026-05-08 21:52 40.60651 -73.87039 4666 ft 236 kts 146°
2026-05-08 21:52 40.59695 -73.85212 5058 ft 260 kts 103°
2026-05-08 21:52 40.59809 -73.82809 5566 ft 268 kts 75°
2026-05-08 21:52 40.60213 -73.80398 6126 ft 277 kts 74°
2026-05-08 21:53 40.60740 -73.77917 6666 ft 284 kts 70°
2026-05-08 21:53 40.61539 -73.75595 7121 ft 274 kts 46°
2026-05-08 21:53 40.62813 -73.73749 7515 ft 274 kts 46°
2026-05-08 21:53 40.64023 -73.71785 8007 ft 277 kts 47°
2026-05-08 21:54 40.65225 -73.69780 8534 ft 280 kts 47°
2026-05-08 21:54 40.66427 -73.67744 9059 ft 282 kts 47°
2026-05-08 21:54 40.67631 -73.65688 9592 ft 285 kts 47°
2026-05-08 21:54 40.68823 -73.63624 10099 ft 288 kts 47°
2026-05-08 21:55 40.70010 -73.61499 10598 ft 293 kts 47°
2026-05-08 21:55 40.71441 -73.59659 11123 ft 286 kts 25°
2026-05-08 21:55 40.73138 -73.58239 11636 ft 290 kts 21°
2026-05-08 21:56 40.76775 -73.55757 12694 ft 300 kts 16°
2026-05-08 21:56 40.78679 -73.54551 13234 ft 306 kts 15°
2026-05-08 21:56 40.80594 -73.53330 13793 ft 312 kts 16°
2026-05-08 21:56 40.82559 -73.52049 14281 ft 318 kts 17°
2026-05-08 21:57 40.84545 -73.50728 14766 ft 323 kts 17°
2026-05-08 21:57 40.86549 -73.49374 15267 ft 328 kts 17°
2026-05-08 21:57 40.88554 -73.48008 15759 ft 332 kts 17°
2026-05-08 21:57 40.90622 -73.46592 16278 ft 337 kts 17°
2026-05-08 21:58 40.92715 -73.45156 16787 ft 342 kts 17°
2026-05-08 21:58 40.94858 -73.43692 16985 ft 356 kts 17°
2026-05-08 21:58 40.97132 -73.42153 17003 ft 375 kts 17°
2026-05-08 21:58 40.99513 -73.40541 17012 ft 393 kts 18°
2026-05-08 21:59 41.01993 -73.38850 16992 ft 406 kts 19°
2026-05-08 21:59 41.04517 -73.37108 16986 ft 409 kts 19°
2026-05-08 21:59 41.07035 -73.35357 16985 ft 409 kts 19°
2026-05-08 21:59 41.09557 -73.33601 16986 ft 409 kts 19°
2026-05-08 22:00 41.12075 -73.31853 16983 ft 409 kts 19°
2026-05-08 22:00 41.14590 -73.30112 16985 ft 408 kts 19°
2026-05-08 22:00 41.17072 -73.28397 16985 ft 408 kts 19°
2026-05-08 22:00 41.19594 -73.26657 16991 ft 409 kts 19°
2026-05-08 22:01 41.22118 -73.24916 16986 ft 410 kts 19°
2026-05-08 22:01 41.24635 -73.23176 16982 ft 410 kts 19°
2026-05-08 22:01 41.27171 -73.21421 16985 ft 410 kts 19°
2026-05-08 22:01 41.29701 -73.19670 16985 ft 410 kts 19°
2026-05-08 22:02 41.32236 -73.17914 16991 ft 410 kts 19°
2026-05-08 22:02 41.34715 -73.16144 16993 ft 414 kts 22°
2026-05-08 22:02 41.37098 -73.13911 17010 ft 424 kts 32°
2026-05-08 22:02 41.39174 -73.11056 16988 ft 435 kts 44°
2026-05-08 22:03 41.40967 -73.07762 16986 ft 439 kts 49°
2026-05-08 22:03 41.42606 -73.04303 16988 ft 442 kts 52°
2026-05-08 22:03 41.44162 -73.00762 16984 ft 443 kts 53°
2026-05-08 22:03 41.45666 -72.97232 16986 ft 443 kts 54°
2026-05-08 22:04 41.47190 -72.93643 16993 ft 443 kts 54°
2026-05-08 22:04 41.48712 -72.90086 16984 ft 442 kts 54°
2026-05-08 22:04 41.50250 -72.86527 16977 ft 442 kts 53°
2026-05-08 22:04 41.51794 -72.82981 16983 ft 441 kts 53°
2026-05-08 22:05 41.52822 -72.80630 16984 ft 441 kts 53°
2026-05-08 22:05 41.54374 -72.77089 16985 ft 442 kts 53°
2026-05-08 22:05 41.55913 -72.73578 16987 ft 442 kts 53°
2026-05-08 22:05 41.57466 -72.70034 16982 ft 442 kts 53°
2026-05-08 22:06 41.59004 -72.66518 16981 ft 442 kts 53°
2026-05-08 22:06 41.60548 -72.62985 16976 ft 442 kts 53°
2026-05-08 22:06 41.62096 -72.59436 16977 ft 442 kts 53°
2026-05-08 22:06 41.63646 -72.55877 16975 ft 441 kts 53°
2026-05-08 22:07 41.65201 -72.52348 16975 ft 441 kts 53°
2026-05-08 22:07 41.66769 -72.48851 16978 ft 441 kts 53°
2026-05-08 22:07 41.68342 -72.45368 16976 ft 440 kts 53°
2026-05-08 22:07 41.69932 -72.41855 16972 ft 440 kts 53°
2026-05-08 22:08 41.71498 -72.38392 16973 ft 440 kts 53°
2026-05-08 22:08 41.73085 -72.34876 16971 ft 440 kts 53°
2026-05-08 22:08 41.74659 -72.31377 16973 ft 440 kts 53°
2026-05-08 22:08 41.76226 -72.27885 16972 ft 440 kts 53°
2026-05-08 22:09 41.77802 -72.24369 16976 ft 440 kts 53°
2026-05-08 22:09 41.79377 -72.20849 16973 ft 440 kts 53°
2026-05-08 22:09 41.80942 -72.17346 16966 ft 440 kts 53°
2026-05-08 22:09 41.82510 -72.13834 16988 ft 440 kts 53°
2026-05-08 22:10 41.84081 -72.10307 16965 ft 439 kts 53°
2026-05-08 22:10 41.85648 -72.06788 16963 ft 439 kts 53°
2026-05-08 22:10 41.87190 -72.03322 16966 ft 439 kts 53°
2026-05-08 22:10 41.88738 -71.99837 16963 ft 439 kts 53°
2026-05-08 22:11 41.90303 -71.96310 16968 ft 439 kts 53°
2026-05-08 22:11 41.91867 -71.92782 16972 ft 439 kts 53°
2026-05-08 22:11 41.93433 -71.89244 16972 ft 439 kts 53°
2026-05-08 22:11 41.94978 -71.85750 16972 ft 439 kts 53°